CW5260 Weather Reports


Display with metric or nautical units.
time (UTC)temp
F
wind
direction
speed
MPH
gust
MPH
rain 1hr
in
rain 24hr
in
rain mn
in
humidity
%
barometer
mb
20180718180933 78 357 2.0 3.0 0.00 0.08 0.00 58 1014.0
20180718175933 78 11 3.0 7.0 0.00 0.08 0.00 60 1014.0
20180718175433 78 1 3.0 10.0 0.00 0.09 0.00 65 1014.1
20180718173433 79 337 4.0 7.0 0.00 0.13 0.00 60 1014.1
20180718171934 78 7 3.0 3.0 0.00 0.15 0.00 63 1014.0
20180718171433 78 21 3.0 7.0 0.00 0.15 0.00 63 1014.1
20180718170933 77 11 3.0 10.0 0.00 0.15 0.00 67 1014.1
20180718170433 77 27 3.0 7.0 0.00 0.16 0.00 70 1014.1
20180718165933 76 349 2.0 6.0 0.00 0.17 0.00 69 1014.2
20180718165434 76 352 3.0 5.0 0.00 0.18 0.00 68 1014.2
20180718164435 76 345 3.0 7.0 0.00 0.20 0.00 72 1014.3
20180718163933 76 329 3.0 10.0 0.00 0.20 0.00 73 1014.3
20180718162933 76 10 3.0 9.0 0.00 0.22 0.00 69 1014.3
20180718160934 76 359 2.0 10.0 0.00 0.28 0.00 70 1014.4
20180718160433 76 352 2.0 7.0 0.00 0.29 0.00 73 1014.5
20180718155434 75 11 4.0 9.0 0.00 0.29 0.00 73 1014.5
20180718154934 76 357 3.0 11.0 0.00 0.31 0.00 73 1014.5
20180718154434 75 21 2.0 5.0 0.00 0.33 0.00 74 1014.5
20180718153933 74 338 2.0 3.0 0.00 0.33 0.00 76 1014.6
20180718150933 75 355 3.0 9.0 0.00 0.41 0.00 75 1014.6
20180718150433 74 15 3.0 6.0 0.00 0.42 0.00 77 1014.6
20180718145933 73 52 3.0 7.0 0.00 0.42 0.00 80 1014.6
20180718144934 72 35 3.0 5.0 0.00 0.42 0.00 77 1014.6
20180718144433 72 77 3.0 10.0 0.00 0.42 0.00 75 1014.6
20180718141934 71 358 2.0 3.0 0.00 0.57 0.00 79 1014.6
20180718141433 71 5 2.0 3.0 0.00 0.57 0.00 80 1014.6
20180718140934 71 12 2.0 4.0 0.00 0.57 0.00 82 1014.5
20180718140433 71 13 3.0 5.0 0.00 0.57 0.00 81 1014.5
20180718134934 70 78 2.0 4.0 0.00 0.57 0.00 83 1014.3
20180718134433 69 13 2.0 6.0 0.00 0.57 0.00 84 1014.3
20180718133934 69 18 1.0 4.0 0.00 0.57 0.00 83 1014.3
20180718133434 69 342 2.0 3.0 0.00 0.57 0.00 88 1014.2
20180718131433 68 331 2.0 4.0 0.00 0.57 0.00 87 1014.2
20180718130934 67 29 2.0 4.0 0.00 0.57 0.00 88 1014.1
20180718130434 67 355 2.0 5.0 0.00 0.57 0.00 91 1014.1
20180718125934 67 327 3.0 6.0 0.00 0.57 0.00 90 1014.0
20180718123934 65 344 2.0 7.0 0.00 0.57 0.00 96 1013.9
20180718121934 63 342 2.0 6.0 0.00 0.57 0.00 97 1013.8
20180718121434 62 336 2.0 5.0 0.00 0.57 0.00 97 1013.8
20180718120433 62 335 2.0 5.0 0.00 0.57 0.00 97 1013.8
20180718115933 62 344 2.0 4.0 0.00 0.57 0.00 97 1013.7
20180718114934 62 355 1.0 3.0 0.00 0.57 0.00 98 1013.7
20180718114439 62 331 1.0 3.0 0.00 0.57 0.00 98 1013.7
20180718113434 61 3 1.0 3.0 0.00 0.57 0.00 98 1013.5
20180718112933 61 326 1.0 2.0 0.00 0.57 0.00 98 1013.5
20180718111933 61 348 1.0 4.0 0.00 0.57 0.00 98 1013.4
20180718111433 61 296 0.0 2.0 0.00 0.57 0.00 98 1013.3
20180718110933 60 302 1.0 4.0 0.00 0.57 0.00 98 1013.4
20180718105933 60 339 1.0 4.0 0.00 0.57 0.00 98 1013.2
20180718105434 60 346 1.0 3.0 0.00 0.57 0.00 98 1013.2
20180718103936 59 338 1.0 2.0 0.00 0.57 0.00 98 1013.1
20180718103434 59 313 1.0 5.0 0.00 0.57 0.00 98 1013.1
20180718102434 58 335 1.0 2.0 0.00 0.57 0.00 98 1013.0
20180718101934 58 338 1.0 2.0 0.00 0.57 0.00 98 1013.0
20180718100934 58 329 1.0 3.0 0.00 0.57 0.00 98 1012.9
20180718095433 59 316 1.0 3.0 0.00 0.57 0.00 98 1012.7
20180718094934 59 322 1.0 4.0 0.00 0.57 0.00 98 1012.6
20180718094434 59 304 1.0 2.0 0.00 0.57 0.00 98 1012.6
20180718092433 59 311 1.0 3.0 0.00 0.57 0.00 98 1012.4
20180718091934 59 322 1.0 4.0 0.00 0.57 0.00 98 1012.4
20180718090437 59 286 1.0 3.0 0.00 0.57 0.00 97 1012.4
20180718085934 59 289 2.0 4.0 0.00 0.57 0.00 97 1012.4
20180718082434 60 309 1.0 3.0 0.00 0.57 0.00 97 1012.0
20180718081934 60 303 1.0 2.0 0.00 0.57 0.00 97 1011.9
20180718080934 60 346 0.0 0.0 0.00 0.57 0.00 97 1011.8
20180718080434 61 346 0.0 0.0 0.00 0.57 0.00 97 1011.8
20180718075934 61 346 0.0 1.0 0.00 0.57 0.00 97 1011.7
20180718074933 61 0 0.0 0.0 0.00 0.57 0.00 97 1011.6
20180718074434 61 0 0.0 0.0 0.00 0.57 0.00 97 1011.6
20180718073934 61 348 0.0 0.0 0.00 0.57 0.00 97 1011.5
20180718071434 62 315 1.0 2.0 0.00 0.57 0.00 97 1011.4
20180718070434 62 297 2.0 2.0 0.00 0.57 0.00 97 1011.4
20180718065934 62 300 2.0 3.0 0.00 0.57 0.00 97 1011.4
20180718065434 63 280 2.0 3.0 0.00 0.57 0.00 97 1011.4
20180718064934 63 274 2.0 3.0 0.00 0.57 0.00 97 1011.4
20180718064439 63 276 2.0 3.0 0.00 0.57 0.00 97 1011.4
20180718063934 63 283 2.0 4.0 0.00 0.57 0.00 97 1011.2
20180718062934 63 290 1.0 3.0 0.00 0.57 0.00 97 1011.2
20180718055434 64 277 2.0 3.0 0.00 0.57 0.00 97 1011.2
20180718054934 65 279 2.0 3.0 0.00 0.57 0.00 97 1011.1
20180718054434 65 297 2.0 4.0 0.00 0.57 0.00 97 1011.1
20180718053934 65 302 2.0 4.0 0.00 0.57 0.00 97 1011.0
20180718053434 65 309 2.0 5.0 0.00 0.57 0.00 97 1011.1
20180718051934 66 315 1.0 3.0 0.00 0.57 0.00 97 1011.0
20180718050934 66 303 2.0 5.0 0.00 0.57 0.00 97 1011.0
20180718050434 66 315 2.0 4.0 0.00 0.57 0.00 97 1010.9
20180718045934 66 313 2.0 5.0 0.00 0.57 0.00 97 1010.9
20180718044934 67 321 1.0 4.0 0.00 0.57 0.00 97 1010.8
20180718043434 67 320 1.0 5.0 0.01 0.57 0.00 97 1010.8
20180718042942 68 319 1.0 3.0 0.01 0.57 0.00 97 1010.7
20180718042434 68 317 1.0 2.0 0.01 0.57 0.00 97 1010.6
20180718041934 68 332 1.0 3.0 0.01 0.57 0.00 97 1010.6
20180718041434 68 9 2.0 5.0 0.01 0.57 0.00 97 1010.6
20180718040434 68 327 2.0 6.0 0.01 0.57 0.00 97 1010.5
20180718035434 69 315 2.0 4.0 0.01 0.57 0.57 97 1010.4
20180718034434 69 322 1.0 3.0 0.00 0.56 0.56 97 1010.4
20180718032434 70 298 1.0 2.0 0.00 0.56 0.56 97 1010.4
20180718031934 70 298 1.0 2.0 0.00 0.56 0.56 97 1010.5
20180718031434 70 298 1.0 2.0 0.00 0.56 0.56 97 1010.4
20180718030434 70 298 1.0 2.0 0.00 0.56 0.56 97 1010.4
20180718025934 70 298 1.0 2.0 0.00 0.56 0.56 97 1010.4
20180718024934 70 305 1.0 3.0 0.00 0.56 0.56 98 1010.4
20180718023934 70 328 1.0 3.0 0.00 0.56 0.56 97 1010.4
20180718022934 70 328 0.0 0.0 0.00 0.56 0.56 97 1010.5
20180718021434 70 298 1.0 5.0 0.00 0.56 0.56 97 1010.5
20180718020934 70 324 1.0 4.0 0.00 0.56 0.56 97 1010.7
20180718020434 70 315 2.0 2.0 0.00 0.56 0.56 97 1010.7
20180718014934 70 275 1.0 3.0 0.00 0.56 0.56 97 1010.5
20180718014437 70 272 1.0 3.0 0.00 0.56 0.56 97 1010.5
20180718013434 71 282 2.0 4.0 0.00 0.56 0.56 97 1010.6
20180718012934 71 281 2.0 4.0 0.00 0.56 0.56 97 1010.5
20180718012434 71 290 2.0 4.0 0.00 0.56 0.56 97 1010.4
20180718011434 71 294 3.0 6.0 0.00 0.56 0.56 97 1010.2
20180718010434 70 291 2.0 4.0 0.00 0.56 0.56 96 1010.0
20180718005934 71 297 2.0 5.0 0.00 0.56 0.56 96 1009.9
20180718005434 71 302 2.0 4.0 0.00 0.56 0.56 95 1010.0
20180718003434 72 303 1.0 3.0 0.00 0.56 0.56 94 1009.6
20180718001434 73 290 1.0 2.0 0.00 0.56 0.56 92 1009.4
20180718000934 73 290 1.0 3.0 0.00 0.56 0.56 92 1009.4
20180717235434 75 290 0.0 1.0 0.00 0.56 0.56 91 1009.4
20180717232934 75 289 1.0 2.0 0.00 0.56 0.56 93 1009.0
20180717232434 75 289 0.0 1.0 0.00 0.56 0.56 94 1009.1
20180717231934 74 289 1.0 2.0 0.01 0.56 0.56 94 1009.1
20180717231434 74 289 1.0 1.0 0.06 0.56 0.56 94 1008.8
20180717230434 74 286 1.0 3.0 0.07 0.56 0.56 96 1008.7
20180717225934 74 299 1.0 4.0 0.07 0.56 0.56 96 1008.6
20180717225434 73 265 1.0 2.0 0.07 0.56 0.56 96 1008.5
20180717224934 73 252 1.0 2.0 0.07 0.56 0.56 94 1008.2
20180717224434 73 258 1.0 2.0 0.07 0.56 0.56 93 1008.2
20180717223434 74 255 2.0 4.0 0.07 0.56 0.56 92 1008.3
20180717222436 76 280 2.0 7.0 0.07 0.56 0.56 90 1008.2
20180717221934 76 315 1.0 4.0 0.05 0.54 0.54 93 1008.2
20180717220934 77 317 0.0 2.0 0.00 0.49 0.49 92 1008.0
20180717215434 77 317 1.0 2.0 0.00 0.49 0.49 91 1007.6
20180717214434 77 297 1.0 3.0 0.00 0.49 0.49 92 1007.7
20180717213935 77 288 1.0 3.0 0.00 0.49 0.49 93 1007.7
20180717212934 76 288 1.0 0.0 0.00 0.49 0.49 94 1007.8
20180717212434 76 288 1.0 3.0 0.00 0.49 0.49 93 1007.7
20180717211434 76 340 1.0 2.0 0.00 0.49 0.49 95 1007.7
20180717210934 76 338 1.0 2.0 0.00 0.49 0.49 95 1007.6
20180717204934 76 327 1.0 2.0 0.00 0.49 0.49 94 1007.7
20180717204434 76 327 1.0 2.0 0.00 0.49 0.49 94 1007.7
20180717203434 76 319 1.0 3.0 0.00 0.49 0.49 95 1007.7
20180717202934 76 140 1.0 2.0 0.00 0.49 0.49 96 1007.7
20180717202434 76 145 1.0 2.0 0.00 0.49 0.49 96 1007.4
20180717201934 75 170 1.0 3.0 0.00 0.49 0.49 97 1007.4
20180717200934 75 218 1.0 3.0 0.00 0.49 0.49 97 1007.3
20180717195935 75 283 1.0 3.0 0.00 0.49 0.49 98 1007.1
20180717195434 74 237 2.0 3.0 0.00 0.49 0.49 98 1007.1
20180717194934 74 253 2.0 4.0 0.00 0.49 0.49 98 1007.1
20180717193434 74 278 1.0 6.0 0.00 0.49 0.49 98 1007.1
20180717191934 73 208 1.0 3.0 0.00 0.49 0.49 99 1007.5
20180717190934 72 243 1.0 3.0 0.00 0.49 0.49 98 1007.8
20180717190434 72 255 1.0 2.0 0.00 0.49 0.49 98 1007.9
20180717184434 71 152 0.0 2.0 0.03 0.49 0.49 98 1008.6
20180717182934 71 151 1.0 2.0 0.07 0.49 0.49 97 1008.7